[[{"header":{"parameterUnit":"m.s-1","parameterCategory":1,"la1":30.2992,"la2":30.254,"lo1":-89.0895,"lo2":-89.0443,"dy":0.0025,"dx":0.0025,"nx":19,"ny":19,"refTime":"2026-03-14T21:00:00:Z","depth":0,"parameterNumber":2,"parameterNumberName":"U-component_of_WINDS"},"data":[0,0,0,-3.8718,-3.8721,-3.8847,-3.8847,-3.9014,-3.9016,0,0,0,0,0,0,0,0,0,0,0,-3.8686,-3.8688,-3.8718,-3.8721,-3.8846,-3.8847,-3.9014,-3.9016,0,0,0,0,0,0,0,0,0,0,0,-3.8686,-3.8687,-3.8689,-3.8722,-3.8846,-3.8847,-3.9014,-3.8917,0,0,0,0,0,0,0,0,0,0,-3.8794,-3.8769,-3.8687,-3.8689,-3.8723,-3.8846,-3.8847,-3.8912,-3.8923,-3.8961,0,-3.8997,0,-3.9009,-3.9028,-3.9028,0,0,0,-3.8718,-3.876,-3.8789,-3.8689,-3.8724,-3.8846,-3.8789,-3.8918,-3.893,-3.8976,-3.8999,-3.9005,-3.9012,-3.9029,-3.903,-3.9265,-3.9266,0,0,-3.8711,-3.8711,-3.8781,-3.8798,-3.8779,-3.8785,-3.8793,-3.8925,-3.8951,-3.9,-3.9009,-3.9015,-3.903,-3.9031,-3.9264,-3.9266,0,0,0,-3.8693,-3.8707,-3.8733,-3.8791,-3.8813,-3.8789,-3.8798,-3.8945,-3.8953,-3.9011,-3.9017,-3.9031,-3.9033,-3.9263,-3.9265,-3.9328,0,0,0,-3.8689,-3.8697,-3.873,-3.8732,-3.8811,-3.8881,-3.8815,-3.8944,-3.8959,-3.9016,-3.9031,-3.9035,-3.9261,-3.9264,-3.9323,-3.9357,0,0,0,-3.8676,-3.8695,-3.8715,-3.8731,-3.8785,-3.8879,-3.8894,-3.8947,-3.8963,-3.9028,-3.9035,-3.926,-3.9263,-3.9319,-3.935,-3.9418,0,0,0,-3.8663,-3.877,-3.8716,-3.8838,-3.8784,-3.8917,-3.8894,-3.8993,-3.9057,-3.9032,-3.9261,-3.9264,-3.9318,-3.9346,-3.9414,-3.9475,-3.9501,0,0,-3.8798,-3.8786,-3.8858,-3.8813,-3.8956,-3.8898,-3.905,-3.9108,-3.9114,-3.9214,-3.922,-3.9325,-3.935,-3.9418,-3.9649,-3.9669,0,0,0,-3.8901,-3.8952,-3.899,-3.9051,-3.9098,-3.9141,-3.9175,-3.9196,-3.9282,-3.9166,-3.9369,-3.9384,-3.9423,-3.9452,-3.947,-3.9503,-3.9278,-3.9278,-3.9278,-3.9093,-3.9094,-3.9212,-3.9229,-3.9289,-3.9323,-3.9371,-3.9406,-3.939,-3.9438,-3.9467,-3.9607,-3.9641,-3.9655,-3.9689,-3.9501,-3.9501,-3.9501,-3.9502,-3.929,-3.9362,-3.9339,-3.9445,-3.9446,-3.9535,-3.9572,-3.9558,-3.9641,-3.9585,-3.962,-3.9558,-3.9677,-3.9707,-3.9506,-3.9506,-3.9505,-3.9504,-3.9504,-3.9414,-3.9449,-3.9474,-3.9561,-3.9629,-3.9643,-3.9723,-3.9721,-3.972,-3.9755,-3.9785,-3.9784,-3.9781,-3.977,-3.977,-3.9771,-3.9771,-3.9771,-3.9772,-3.9533,-3.9559,-3.9627,-3.9686,-3.9724,-3.9775,-3.9811,-3.9849,-3.989,-3.9882,-3.9882,-3.9861,-3.9689,-3.9645,-3.9779,-3.9778,-3.9777,-3.9776,-3.9776,-3.973,-3.9685,-3.979,-3.9829,-3.9897,-3.9964,-3.9961,-4.0038,-4.0069,-4.0109,-4.0081,-3.9954,-3.9942,-3.9928,-3.9891,-4.0081,-4.0081,-4.0081,-4.0081,-3.9834,-3.9828,-3.9934,-3.9996,-4.0056,-4.0064,-4.0182,-4.0211,-4.0234,-4.0253,-4.0226,-4.0178,-4.0164,-4.0159,-4.014,-4.0106,-4.0346,-4.0346,-4.0347,-3.9954,-3.9954,-4.0054,-4.0076,-4.013,-4.0175,-4.0286,-4.0357,-4.0374,-4.0357,-4.0268,-4.0257,-4.0179,-4.0154,-4.0133,-4.0104,-4.0041,0,0]},{"header":{"parameterUnit":"m.s-1","parameterCategory":1,"la1":30.2992,"la2":30.254,"lo1":-89.0895,"lo2":-89.0443,"dy":0.0025,"dx":0.0025,"nx":19,"ny":19,"refTime":"2026-03-14T21:00:00:Z","depth":0,"parameterNumber":3,"parameterNumberName":"V-component_of_WINDS"},"data":[0,0,0,4.3965,4.3969,4.4174,4.4175,4.4433,4.4435,0,0,0,0,0,0,0,0,0,0,0,4.3902,4.3904,4.3964,4.3969,4.4174,4.4175,4.4432,4.4435,0,0,0,0,0,0,0,0,0,0,0,4.3902,4.3904,4.3906,4.397,4.4174,4.4175,4.4432,4.4278,0,0,0,0,0,0,0,0,0,0,4.408,4.4022,4.3903,4.3906,4.3971,4.4173,4.4175,4.4271,4.4288,4.4339,0,4.4384,0,4.4414,4.4452,4.4453,0,0,0,4.397,4.4007,4.4064,4.3906,4.3973,4.4173,4.4082,4.4281,4.43,4.4361,4.4388,4.4397,4.4418,4.4454,4.4455,4.4745,4.4747,0,0,4.3959,4.3938,4.4051,4.4076,4.4045,4.4075,4.4088,4.4292,4.4319,4.4388,4.4403,4.4422,4.4455,4.4457,4.4744,4.4746,0,0,0,4.3926,4.393,4.3982,4.4066,4.4103,4.4081,4.4096,4.431,4.4329,4.4406,4.4425,4.4457,4.446,4.4743,4.4745,4.4789,0,0,0,4.3919,4.3911,4.3977,4.3966,4.4099,4.4209,4.4109,4.4315,4.4339,4.4424,4.4457,4.4463,4.4741,4.4744,4.4785,4.4813,0,0,0,4.389,4.3908,4.3937,4.3965,4.4052,4.4207,4.4237,4.432,4.435,4.4453,4.4463,4.474,4.4743,4.4781,4.4807,4.4883,0,0,0,4.3852,4.3973,4.3937,4.408,4.405,4.4233,4.4236,4.4373,4.4467,4.4458,4.4742,4.4745,4.478,4.4803,4.4878,4.4942,4.4967,0,0,4.3993,4.3989,4.4075,4.4049,4.4232,4.4203,4.4394,4.4499,4.4527,4.4671,4.4678,4.4786,4.4806,4.4882,4.5116,4.5135,0,0,0,4.4112,4.4174,4.4227,4.4315,4.4399,4.4473,4.4552,4.4591,4.4714,4.4597,4.4835,4.4848,4.4893,4.4924,4.4941,4.4981,4.4758,4.4758,4.4758,4.4281,4.4312,4.4456,4.4511,4.4597,4.4678,4.475,4.4816,4.4822,4.4878,4.492,4.5058,4.5094,4.5106,4.5147,4.4957,4.4957,4.4957,4.4957,4.449,4.4581,4.4586,4.4727,4.4759,4.4878,4.4961,4.4961,4.5075,4.5029,4.507,4.5014,4.5127,4.5164,4.4961,4.4961,4.496,4.496,4.4959,4.4602,4.4651,4.4698,4.4829,4.4927,4.4979,4.509,4.5115,4.514,4.5181,4.5227,4.5227,4.5228,4.5201,4.5202,4.5202,4.5203,4.5203,4.5204,4.47,4.4751,4.4841,4.4941,4.5001,4.5084,4.5167,4.5227,4.5299,4.5309,4.531,4.5309,4.5133,4.5087,4.5211,4.521,4.5209,4.5208,4.5208,4.4898,4.4858,4.4996,4.5057,4.5176,4.5271,4.5303,4.5423,4.5477,4.553,4.5522,4.5388,4.5385,4.5372,4.5335,4.5515,4.5515,4.5515,4.5515,4.4992,4.4994,4.5142,4.5237,4.5333,4.5376,4.5531,4.5597,4.5658,4.5693,4.5671,4.5624,4.5609,4.5615,4.5597,4.5562,4.5797,4.5797,4.5797,4.5115,4.5128,4.5255,4.5315,4.541,4.5491,4.5638,4.5747,4.5808,4.5809,4.5721,4.5709,4.5633,4.5607,4.5603,4.5575,4.5511,0,0]}]]